Cheyenne Regional Jerry Olson Field
KCYS : now visible

Airfield :











YOU CAN JOIN US ON...

 
LOGIN :

Register | Disclaimer

   EN    FR    IT 

 









Legend :    VFR   Marginal VFR   IFR   Intensive IFR   Very Intensive IFR
Visi :
Ceiling :
>= 8 km
>= 3000ft
5 to 8 km
1000 to 3000 ft
1500m to 5 km
500 to 1000 ft
800 to 1500m
200 to 500 ft
< 800m
< 200 ft
Symbols :   Thunderstorms  Fog  Heavy snow  Heavy precipitations  Wind > 20 kt






- Airport Elevation : 6159 ft
- IATA code : CYS


KCYS - Cheyenne Regional Jerry Olson Field

CURRENT METAR :
  • 220153Z 35010KT 10SM CLR M03/M05 A3026 RMK AO2 SLP273 T10281050 $

EXPIRED METARs :
  • 220053Z 36010G19KT 10SM FEW012 SCT025 M02/M04 A3023 RMK AO2 SLP260 T10171044 $
  • 212353Z 01010KT 10SM BKN025 M01/M05 A3021 RMK AO2 PK WND 36028/2309 SLP247 T10111050 10022 21011 53021

TAF KCYS
Valid from the 22 at 00:00 until the 23 at 00:00 UTC


212328Z 2200/2224 36015G23KT P6SM VCSH SCT020 BKN100
FM220200 33009KT P6SM FEW020
FM220800 27006KT P6SM SKC
FM221700 29014G22KT P6SM SKC
KZDV FIR / North America



MET'MAP, your aeronautical weather chart ! - Copyright ORBIFLY December 2007 - Disclaimer

ORBIFLY MET'MAP TEAM :

Programming & Development : Alexandra Zaïnal
Concept & original design : Baudouin d'Aumeries
Assistance for programming : Marc-Olivier Méhu
Technical & hardware support : Manuel Goepfert

Contact : metmap@orbifly.com




SOURCES & CREDITS :

   NOAA       Earth
Advisory